Wolke Sonne

Wetter Ammerndorf

Gehe zu: Roßtal

Tageswerte vom Donnerstag, 09.04.2020

Optionen

Tag:
Erweitert:

Alle Werte vom Donnerstag, 09.04.2020

Einen Moment bitte, die Daten werden aufbereitet...

UhrzeitTemperaturBoden 10cmBoden 20cmFeuchteLuftdruckNiederschlagEvapotranspirationWindWindböenWindrichtungSolarstrahlungUV-IndexSonne?Uhrzeit
Diagramm IconDiagramm IconDiagramm IconDiagramm IconDiagramm IconDiagramm IconDiagramm IconDiagramm IconDiagramm IconDiagramm IconDiagramm IconDiagramm IconDiagramm Icon
00:006,4 °C 8,9 °C 8,9 °C 71 % 1023,3 hPa 0,0 mm - 0,0 km/h 0,0 km/h NO 0,0 W/qm 0,0 nein 00:00
00:056,3 °C 8,9 °C 8,9 °C 71 % 1023,3 hPa 0,0 mm 0,0 mm 0,0 km/h 0,0 km/h NO 0,0 W/qm 0,0 nein 00:05
00:106,2 °C 8,9 °C 8,9 °C 72 % 1023,4 hPa 0,0 mm 0,0 mm 0,0 km/h 0,0 km/h NO 0,0 W/qm 0,0 nein 00:10
00:156,1 °C 8,9 °C 8,9 °C 73 % 1023,4 hPa 0,0 mm - 0,0 km/h 0,0 km/h NO 0,0 W/qm 0,0 nein 00:15
00:205,9 °C 8,9 °C 8,3 °C 73 % 1023,4 hPa 0,0 mm - 0,0 km/h 0,0 km/h NO 0,0 W/qm 0,0 nein 00:20
00:255,8 °C 8,9 °C 8,3 °C 73 % 1023,4 hPa 0,0 mm - 0,0 km/h 0,0 km/h NO 0,0 W/qm 0,0 nein 00:25
00:305,7 °C 8,9 °C 8,3 °C 74 % 1023,4 hPa 0,0 mm - 0,0 km/h 0,0 km/h NO 0,0 W/qm 0,0 nein 00:30
00:355,6 °C 8,9 °C 8,3 °C 74 % 1023,4 hPa 0,0 mm - 0,0 km/h 0,0 km/h NO 0,0 W/qm 0,0 nein 00:35
00:405,5 °C 8,9 °C 8,3 °C 74 % 1023,4 hPa 0,0 mm - 0,0 km/h 0,0 km/h NO 0,0 W/qm 0,0 nein 00:40
00:455,4 °C 8,9 °C 8,3 °C 75 % 1023,5 hPa 0,0 mm - 0,0 km/h 0,0 km/h NO 0,0 W/qm 0,0 nein 00:45
00:505,2 °C 8,9 °C 8,3 °C 75 % 1023,5 hPa 0,0 mm - 0,0 km/h 0,0 km/h NO 0,0 W/qm 0,0 nein 00:50
00:555,2 °C 8,9 °C 8,3 °C 76 % 1023,5 hPa 0,0 mm - 0,0 km/h 0,0 km/h NO 0,0 W/qm 0,0 nein 00:55
01:005,1 °C 8,9 °C 8,3 °C 77 % 1023,4 hPa 0,0 mm - 0,0 km/h 0,0 km/h NO 0,0 W/qm 0,0 nein 01:00
01:055,0 °C 8,3 °C 8,3 °C 77 % 1023,4 hPa 0,0 mm 0,0 mm 0,0 km/h 1,4 km/h NO 0,0 W/qm 0,0 nein 01:05
01:104,9 °C 8,3 °C 8,3 °C 77 % 1023,4 hPa 0,0 mm 0,0 mm 0,0 km/h 3,2 km/h NO 0,0 W/qm 0,0 nein 01:10
01:154,9 °C 8,3 °C 8,3 °C 77 % 1023,5 hPa 0,0 mm - 0,0 km/h 3,2 km/h NO 0,0 W/qm 0,0 nein 01:15
01:204,8 °C 8,3 °C 8,3 °C 77 % 1023,5 hPa 0,0 mm - 0,0 km/h 1,4 km/h NO 0,0 W/qm 0,0 nein 01:20
01:254,7 °C 8,3 °C 8,3 °C 77 % 1023,5 hPa 0,0 mm - 0,0 km/h 0,0 km/h NO 0,0 W/qm 0,0 nein 01:25
01:304,7 °C 8,3 °C 8,3 °C 77 % 1023,5 hPa 0,0 mm - 0,0 km/h 0,0 km/h NO 0,0 W/qm 0,0 nein 01:30
01:354,6 °C 8,3 °C 8,3 °C 77 % 1023,5 hPa 0,0 mm - 0,0 km/h 0,0 km/h NO 0,0 W/qm 0,0 nein 01:35
01:404,5 °C 8,3 °C 8,3 °C 77 % 1023,5 hPa 0,0 mm - 0,0 km/h 0,0 km/h NO 0,0 W/qm 0,0 nein 01:40
01:454,4 °C 8,3 °C 8,3 °C 77 % 1023,5 hPa 0,0 mm - 0,0 km/h 0,0 km/h NO 0,0 W/qm 0,0 nein 01:45
01:504,3 °C 8,3 °C 8,3 °C 78 % 1023,5 hPa 0,0 mm - 0,0 km/h 0,0 km/h NO 0,0 W/qm 0,0 nein 01:50
01:554,2 °C 8,3 °C 8,3 °C 79 % 1023,5 hPa 0,0 mm - 0,0 km/h 0,0 km/h NO 0,0 W/qm 0,0 nein 01:55
UhrzeitTemperaturBoden 10cmBoden 20cmFeuchteLuftdruckNiederschlagEvapotranspirationWindWindböenWindrichtungSolarstrahlungUV-IndexSonne?Uhrzeit
02:004,2 °C 8,3 °C 8,3 °C 80 % 1023,4 hPa 0,0 mm - 0,0 km/h 3,2 km/h NO 0,0 W/qm 0,0 nein 02:00
02:054,1 °C 8,3 °C 8,3 °C 80 % 1023,4 hPa 0,0 mm 0,0 mm 0,0 km/h 3,2 km/h NO 0,0 W/qm 0,0 nein 02:05
02:104,0 °C 8,3 °C 8,3 °C 79 % 1023,4 hPa 0,0 mm 0,0 mm 0,0 km/h 3,2 km/h NO 0,0 W/qm 0,0 nein 02:10
02:153,9 °C 8,3 °C 8,3 °C 79 % 1023,4 hPa 0,0 mm - 0,0 km/h 0,0 km/h NO 0,0 W/qm 0,0 nein 02:15
02:203,8 °C 8,3 °C 8,3 °C 80 % 1023,3 hPa 0,0 mm - 0,0 km/h 0,0 km/h NO 0,0 W/qm 0,0 nein 02:20
02:253,8 °C 8,3 °C 8,3 °C 79 % 1023,3 hPa 0,0 mm - 0,0 km/h 0,0 km/h NO 0,0 W/qm 0,0 nein 02:25
02:303,7 °C 8,3 °C 8,3 °C 80 % 1023,3 hPa 0,0 mm - 0,0 km/h 0,0 km/h NO 0,0 W/qm 0,0 nein 02:30
02:353,6 °C 8,3 °C 8,3 °C 80 % 1023,2 hPa 0,0 mm - 0,0 km/h 0,0 km/h NO 0,0 W/qm 0,0 nein 02:35
02:403,6 °C 8,3 °C 8,3 °C 80 % 1023,2 hPa 0,0 mm - 0,0 km/h 0,0 km/h NO 0,0 W/qm 0,0 nein 02:40
02:453,4 °C 8,3 °C 8,3 °C 81 % 1023,3 hPa 0,0 mm - 0,0 km/h 0,0 km/h NO 0,0 W/qm 0,0 nein 02:45
02:503,4 °C 8,3 °C 8,3 °C 80 % 1023,4 hPa 0,0 mm - 0,0 km/h 0,0 km/h NO 0,0 W/qm 0,0 nein 02:50
02:553,3 °C 8,3 °C 8,3 °C 81 % 1023,4 hPa 0,0 mm - 0,0 km/h 0,0 km/h NO 0,0 W/qm 0,0 nein 02:55
03:003,2 °C 8,3 °C 8,3 °C 81 % 1023,4 hPa 0,0 mm - 0,0 km/h 0,0 km/h NO 0,0 W/qm 0,0 nein 03:00
03:053,1 °C 8,3 °C 8,3 °C 81 % 1023,4 hPa 0,0 mm 0,0 mm 0,0 km/h 0,0 km/h NO 0,0 W/qm 0,0 nein 03:05
03:103,1 °C 8,3 °C 8,3 °C 81 % 1023,4 hPa 0,0 mm 0,0 mm 0,0 km/h 0,0 km/h NO 0,0 W/qm 0,0 nein 03:10
03:153,0 °C 8,3 °C 8,3 °C 82 % 1023,4 hPa 0,0 mm - 0,0 km/h 0,0 km/h NO 0,0 W/qm 0,0 nein 03:15
03:202,9 °C 7,8 °C 8,3 °C 82 % 1023,5 hPa 0,0 mm - 0,0 km/h 0,0 km/h NO 0,0 W/qm 0,0 nein 03:20
03:252,8 °C 7,8 °C 8,3 °C 82 % 1023,4 hPa 0,0 mm - 0,0 km/h 0,0 km/h NO 0,0 W/qm 0,0 nein 03:25
03:302,8 °C 7,8 °C 8,3 °C 82 % 1023,3 hPa 0,0 mm - 0,0 km/h 0,0 km/h NO 0,0 W/qm 0,0 nein 03:30
03:352,7 °C 7,8 °C 8,3 °C 82 % 1023,4 hPa 0,0 mm - 0,0 km/h 0,0 km/h NO 0,0 W/qm 0,0 nein 03:35
03:402,6 °C 7,8 °C 8,3 °C 82 % 1023,4 hPa 0,0 mm - 0,0 km/h 0,0 km/h NO 0,0 W/qm 0,0 nein 03:40
03:452,5 °C 7,8 °C 8,3 °C 83 % 1023,4 hPa 0,0 mm - 0,0 km/h 0,0 km/h NO 0,0 W/qm 0,0 nein 03:45
03:502,4 °C 7,8 °C 8,3 °C 83 % 1023,4 hPa 0,0 mm - 0,0 km/h 0,0 km/h NO 0,0 W/qm 0,0 nein 03:50
03:552,3 °C 7,8 °C 8,3 °C 83 % 1023,4 hPa 0,0 mm - 0,0 km/h 0,0 km/h NO 0,0 W/qm 0,0 nein 03:55
UhrzeitTemperaturBoden 10cmBoden 20cmFeuchteLuftdruckNiederschlagEvapotranspirationWindWindböenWindrichtungSolarstrahlungUV-IndexSonne?Uhrzeit
04:002,3 °C 7,8 °C 8,3 °C 82 % 1023,4 hPa 0,0 mm - 0,0 km/h 0,0 km/h NO 0,0 W/qm 0,0 nein 04:00
04:052,2 °C 7,8 °C 8,3 °C 83 % 1023,4 hPa 0,0 mm 0,0 mm 0,0 km/h 0,0 km/h NO 0,0 W/qm 0,0 nein 04:05
04:102,1 °C 7,8 °C 8,3 °C 83 % 1023,4 hPa 0,0 mm 0,0 mm 0,0 km/h 0,0 km/h NO 0,0 W/qm 0,0 nein 04:10
04:152,1 °C 7,8 °C 8,3 °C 83 % 1023,4 hPa 0,0 mm - 0,0 km/h 0,0 km/h NO 0,0 W/qm 0,0 nein 04:15
04:202,0 °C 7,8 °C 8,3 °C 83 % 1023,4 hPa 0,0 mm - 0,0 km/h 0,0 km/h NO 0,0 W/qm 0,0 nein 04:20
04:251,9 °C 7,8 °C 8,3 °C 83 % 1023,4 hPa 0,0 mm - 0,0 km/h 0,0 km/h NO 0,0 W/qm 0,0 nein 04:25
04:301,8 °C 7,8 °C 8,3 °C 83 % 1023,4 hPa 0,0 mm - 0,0 km/h 0,0 km/h NO 0,0 W/qm 0,0 nein 04:30
04:351,7 °C 7,8 °C 8,3 °C 83 % 1023,4 hPa 0,0 mm - 0,0 km/h 0,0 km/h NO 0,0 W/qm 0,0 nein 04:35
04:401,7 °C 7,8 °C 8,3 °C 84 % 1023,4 hPa 0,0 mm - 0,0 km/h 0,0 km/h NO 0,0 W/qm 0,0 nein 04:40
04:451,6 °C 7,8 °C 8,3 °C 84 % 1023,5 hPa 0,0 mm - 0,0 km/h 0,0 km/h NO 0,0 W/qm 0,0 nein 04:45
04:501,6 °C 7,8 °C 8,3 °C 84 % 1023,4 hPa 0,0 mm - 0,0 km/h 0,0 km/h NO 0,0 W/qm 0,0 nein 04:50
04:551,5 °C 7,8 °C 8,3 °C 84 % 1023,5 hPa 0,0 mm - 0,0 km/h 0,0 km/h NO 0,0 W/qm 0,0 nein 04:55
05:001,4 °C 7,8 °C 8,3 °C 85 % 1023,4 hPa 0,0 mm - 0,0 km/h 0,0 km/h NO 0,0 W/qm 0,0 nein 05:00
05:051,4 °C 7,8 °C 8,3 °C 86 % 1023,4 hPa 0,0 mm 0,0 mm 0,0 km/h 0,0 km/h NO 0,0 W/qm 0,0 nein 05:05
05:101,4 °C 7,8 °C 8,3 °C 86 % 1023,6 hPa 0,0 mm 0,0 mm 0,0 km/h 0,0 km/h NO 0,0 W/qm 0,0 nein 05:10
05:151,3 °C 7,8 °C 8,3 °C 86 % 1023,8 hPa 0,0 mm - 0,0 km/h 0,0 km/h NO 0,0 W/qm 0,0 nein 05:15
05:201,4 °C 7,8 °C 8,3 °C 87 % 1023,7 hPa 0,0 mm - 0,0 km/h 0,0 km/h NO 0,0 W/qm 0,0 nein 05:20
05:251,4 °C 7,8 °C 8,3 °C 87 % 1023,8 hPa 0,0 mm - 0,0 km/h 1,4 km/h NO 0,0 W/qm 0,0 nein 05:25
05:301,4 °C 7,8 °C 8,3 °C 87 % 1023,8 hPa 0,0 mm - 0,0 km/h 1,4 km/h NO 0,0 W/qm 0,0 nein 05:30
05:351,3 °C 7,8 °C 8,3 °C 87 % 1023,9 hPa 0,0 mm - 0,0 km/h 1,4 km/h NO 0,0 W/qm 0,0 nein 05:35
05:401,3 °C 7,2 °C 8,3 °C 87 % 1023,9 hPa 0,0 mm - 0,0 km/h 0,0 km/h NO 0,0 W/qm 0,0 nein 05:40
05:451,3 °C 7,2 °C 8,3 °C 87 % 1023,9 hPa 0,0 mm - 0,0 km/h 0,0 km/h NO 0,0 W/qm 0,0 nein 05:45
05:501,2 °C 7,2 °C 8,3 °C 87 % 1023,9 hPa 0,0 mm - 0,0 km/h 0,0 km/h NO 0,0 W/qm 0,0 nein 05:50
05:551,2 °C 7,2 °C 8,3 °C 87 % 1024,0 hPa 0,0 mm - 0,0 km/h 3,2 km/h NO 0,0 W/qm 0,0 nein 05:55
UhrzeitTemperaturBoden 10cmBoden 20cmFeuchteLuftdruckNiederschlagEvapotranspirationWindWindböenWindrichtungSolarstrahlungUV-IndexSonne?Uhrzeit
06:001,1 °C 7,2 °C 8,3 °C 87 % 1024,1 hPa 0,0 mm - 0,0 km/h 3,2 km/h NO 0,0 W/qm 0,0 nein 06:00
06:051,1 °C 7,2 °C 8,3 °C 87 % 1024,0 hPa 0,0 mm 0,0 mm 0,0 km/h 3,2 km/h NO 0,0 W/qm 0,0 nein 06:05
06:101,1 °C 7,2 °C 8,3 °C 87 % 1024,1 hPa 0,0 mm 0,0 mm 0,0 km/h 3,2 km/h NO 0,0 W/qm 0,0 nein 06:10
06:151,0 °C 7,2 °C 8,3 °C 87 % 1024,1 hPa 0,0 mm - 0,0 km/h 1,4 km/h NO 0,0 W/qm 0,0 nein 06:15
06:200,9 °C 7,2 °C 7,8 °C 87 % 1024,1 hPa 0,0 mm - 0,0 km/h 1,4 km/h NO 0,0 W/qm 0,0 nein 06:20
06:250,9 °C 7,2 °C 7,8 °C 87 % 1024,1 hPa 0,0 mm - 0,0 km/h 0,0 km/h NO 0,0 W/qm 0,0 nein 06:25
06:300,8 °C 7,2 °C 7,8 °C 87 % 1024,3 hPa 0,0 mm - 0,0 km/h 0,0 km/h NO 0,0 W/qm 0,0 nein 06:30
06:350,8 °C 7,2 °C 7,8 °C 87 % 1024,3 hPa 0,0 mm - 0,0 km/h 0,0 km/h NO 5,0 W/qm 0,0 nein 06:35
06:400,8 °C 7,2 °C 7,8 °C 87 % 1024,3 hPa 0,0 mm - 0,0 km/h 0,0 km/h NO 7,0 W/qm 0,0 nein 06:40
06:450,8 °C 7,2 °C 7,8 °C 88 % 1024,3 hPa 0,0 mm - 0,0 km/h 0,0 km/h NO 11,0 W/qm 0,0 nein 06:45
06:500,7 °C 7,2 °C 7,8 °C 88 % 1024,5 hPa 0,0 mm - 0,0 km/h 0,0 km/h NO 12,0 W/qm 0,0 nein 06:50
06:550,7 °C 7,2 °C 7,8 °C 88 % 1024,5 hPa 0,0 mm - 0,0 km/h 0,0 km/h NO 16,0 W/qm 0,0 nein 06:55
07:000,7 °C 7,2 °C 7,8 °C 88 % 1024,4 hPa 0,0 mm - 0,0 km/h 0,0 km/h NO 19,0 W/qm 0,0 nein 07:00
07:050,7 °C 7,2 °C 7,8 °C 88 % 1024,5 hPa 0,0 mm 0,0 mm 0,0 km/h 0,0 km/h NO 23,0 W/qm 0,0 nein 07:05
07:100,7 °C 7,2 °C 7,8 °C 88 % 1024,5 hPa 0,0 mm 0,0 mm 0,0 km/h 0,0 km/h NO 26,0 W/qm 0,0 nein 07:10
07:150,7 °C 7,2 °C 7,8 °C 88 % 1024,6 hPa 0,0 mm - 0,0 km/h 0,0 km/h NO 28,0 W/qm 0,0 nein 07:15
07:200,7 °C 7,2 °C 7,8 °C 89 % 1024,6 hPa 0,0 mm - 0,0 km/h 0,0 km/h NO 32,0 W/qm 0,0 nein 07:20
07:250,7 °C 7,2 °C 7,8 °C 89 % 1024,6 hPa 0,0 mm - 0,0 km/h 0,0 km/h NO 35,0 W/qm 0,0 nein 07:25
07:300,8 °C 7,2 °C 7,8 °C 89 % 1024,7 hPa 0,0 mm - 0,0 km/h 0,0 km/h NO 37,0 W/qm 0,0 nein 07:30
07:350,8 °C 7,2 °C 7,8 °C 89 % 1024,7 hPa 0,0 mm - 0,0 km/h 0,0 km/h NO 40,0 W/qm 0,0 nein 07:35
07:400,8 °C 7,2 °C 7,8 °C 89 % 1024,7 hPa 0,0 mm - 0,0 km/h 0,0 km/h NO 42,0 W/qm 0,0 nein 07:40
07:450,9 °C 7,2 °C 7,8 °C 89 % 1024,7 hPa 0,0 mm - 0,0 km/h 0,0 km/h NO 49,0 W/qm 0,0 nein 07:45
07:501,2 °C 7,2 °C 7,8 °C 90 % 1024,6 hPa 0,0 mm - 0,0 km/h 0,0 km/h NO 54,0 W/qm 0,0 nein 07:50
07:551,3 °C 7,2 °C 7,8 °C 90 % 1024,7 hPa 0,0 mm - 0,0 km/h 3,2 km/h NO 56,0 W/qm 0,0 nein 07:55
UhrzeitTemperaturBoden 10cmBoden 20cmFeuchteLuftdruckNiederschlagEvapotranspirationWindWindböenWindrichtungSolarstrahlungUV-IndexSonne?Uhrzeit
08:001,6 °C 7,2 °C 7,8 °C 90 % 1024,7 hPa 0,0 mm - 0,0 km/h 3,2 km/h NO 58,0 W/qm 0,0 nein 08:00
08:052,1 °C 7,2 °C 7,8 °C 91 % 1024,6 hPa 0,0 mm 0,0 mm 0,0 km/h 3,2 km/h NO 60,0 W/qm 0,0 nein 08:05
08:102,4 °C 7,2 °C 7,8 °C 90 % 1024,6 hPa 0,0 mm 0,0 mm 0,0 km/h 3,2 km/h NO 62,0 W/qm 0,0 nein 08:10
08:152,6 °C 7,2 °C 7,8 °C 90 % 1024,6 hPa 0,0 mm - 0,0 km/h 3,2 km/h NO 63,0 W/qm 0,0 nein 08:15
08:202,9 °C 7,2 °C 7,8 °C 90 % 1024,6 hPa 0,0 mm - 0,0 km/h 3,2 km/h NO 67,0 W/qm 0,0 nein 08:20
08:253,1 °C 7,2 °C 7,8 °C 90 % 1024,5 hPa 0,0 mm - 0,0 km/h 0,0 km/h NO 69,0 W/qm 0,5 nein 08:25
08:303,4 °C 7,2 °C 7,8 °C 89 % 1024,6 hPa 0,0 mm - 0,0 km/h 0,0 km/h NO 70,0 W/qm 0,5 nein 08:30
08:353,6 °C 7,2 °C 7,8 °C 89 % 1024,6 hPa 0,0 mm - 0,0 km/h 0,0 km/h S 72,0 W/qm 0,5 nein 08:35
08:404,1 °C 7,2 °C 7,8 °C 89 % 1024,6 hPa 0,0 mm - 1,4 km/h 4,7 km/h NO 76,0 W/qm 0,6 nein 08:40
Gesamt: 2,7 °C 7,9 °C 8,2 °C 83 % 1023,8 hPa 0,0 mm 0,1 mm 0,0 km/h 0,6 km/h 0 10,4 W/qm 0,0 nein

Insgesamt 105 Zeilen mal 13 Spalten = 1365 Werte werden angezeigt.

www.wetter-rosstal.de   •   www.wetter-franken.de   •   www.lightningmaps.org   •   Start   •   Kontakt / Datenschutz   •   PC-Kümmerer